KC7NGC-B Weather Reports


Display with metric or nautical units.
time (UTC)temp
F
wind
direction
speed
MPH
gust
MPH
rain 1hr
in
rain 24hr
in
rain mn
in
humidity
%
barometer
mb
20260903055619 58 191 11.0 16.0 0.00 0.01 0.01 1 1009.8
20260903054635 58 194 6.0 11.0 0.00 0.01 0.01 1 1010.0
20260903053631 59 207 13.0 20.0 0.00 0.00 0.00 1 1010.0
20260903052627 59 191 6.0 12.0 0.00 0.00 0.00 1 1010.1
20260903051624 59 202 10.0 12.0 0.00 0.00 0.00 1 1009.9
20260903050620 59 202 10.0 13.0 0.00 0.00 0.00 1 1010.0
20260903045616 60 208 7.0 13.0 0.00 0.00 0.00 1 1009.8
20260903044632 60 215 7.0 12.0 0.00 0.00 0.00 1 1009.7
20260903043628 60 198 9.0 14.0 0.00 0.00 0.00 1 1009.6
20260903042625 60 198 6.0 17.0 0.00 0.00 0.00 1 1009.7
20260903041701 60 208 8.0 19.0 0.00 0.00 0.00 1 1009.6
20260903040616 60 190 6.0 12.0 0.00 0.00 0.00 1 1009.6
20260903035653 60 195 7.0 15.0 0.00 0.00 0.00 1 1009.6
20260903034629 60 199 8.0 11.0 0.00 0.00 0.00 1 1009.5
20260903033625 60 200 9.0 12.0 0.00 0.00 0.00 1 1009.5
20260903032621 60 196 8.0 12.0 0.00 0.00 0.00 1 1009.6
20260903031617 60 202 7.0 11.0 0.00 0.00 0.00 1 1009.3
20260903030633 61 199 5.0 9.0 0.00 0.00 0.00 1 1009.3
20260903025629 61 196 5.0 10.0 0.00 0.00 0.00 1 1009.1
20260903024645 61 198 6.0 9.0 0.00 0.00 0.00 1 1009.2
20260903023622 61 204 8.0 10.0 0.00 0.00 0.00 1 1009.4
20260903022618 61 188 8.0 15.0 0.00 0.00 0.00 1 1009.4
20260903021654 61 201 10.0 14.0 0.00 0.00 0.00 1 1009.2
20260903020631 61 205 8.0 12.0 0.00 0.00 0.00 1 1009.2
20260903015627 62 217 6.0 12.0 0.00 0.00 0.00 1 1009.4
20260903014623 62 199 9.0 15.0 0.00 0.00 0.00 1 1009.5
20260903013619 63 217 7.0 12.0 0.00 0.00 0.00 1 1009.2
20260903012656 63 217 12.0 17.0 0.00 0.00 0.00 1 1009.4
20260903011632 63 221 9.0 16.0 0.00 0.00 0.00 1 1009.4
20260903010628 64 212 10.0 16.0 0.00 0.00 0.00 1 1009.3
20260903005624 64 222 6.0 10.0 0.00 0.00 0.00 1 1009.1
20260903004620 65 218 6.0 16.0 0.00 0.00 0.00 1 1009.1
20260903003619 65 219 12.0 17.0 0.00 0.00 0.00 1 1009.1
20260903002632 65 216 8.0 14.0 0.00 0.00 0.00 1 1009.1
20260903001628 64 223 9.0 20.0 0.00 0.00 0.00 1 1009.0
20260903000624 64 215 10.0 14.0 0.00 0.00 0.00 1 1009.1
20260902235621 64 205 9.0 13.0 0.00 0.00 0.00 1 1009.1
20260902234617 65 210 8.0 14.0 0.00 0.00 0.00 1 1008.9
20260902233654 67 215 9.0 16.0 0.00 0.00 0.00 1 1008.7
20260902232629 67 214 11.0 20.0 0.00 0.00 0.00 1 1008.9
20260902231646 67 210 12.0 16.0 0.00 0.00 0.00 1 1009.2
20260902230621 66 224 6.0 11.0 0.00 0.00 0.00 1 1009.3
20260902225618 64 204 6.0 9.0 0.00 0.00 0.00 1 1009.2
20260902224634 63 205 6.0 10.0 0.00 0.00 0.00 1 1009.3
20260902223650 64 211 9.0 12.0 0.00 0.00 0.00 1 1009.2
20260902222626 66 237 9.0 21.0 0.00 0.00 0.00 1 1009.2
20260902221623 71 216 6.0 10.0 0.00 0.00 0.00 1 1008.7
20260902220638 74 186 9.0 12.0 0.00 0.00 0.00 1 1008.0
20260902215634 73 189 4.0 6.0 0.00 0.00 0.00 1 1008.0
20260902214631 72 183 4.0 5.0 0.00 0.00 0.00 1 1008.0
20260902213627 72 180 7.0 11.0 0.00 0.00 0.00 1 1008.1
20260902212703 73 177 6.0 8.0 0.00 0.00 0.00 1 1008.1
20260902211639 74 179 5.0 6.0 0.00 0.00 0.00 1 1008.2
20260902210635 74 172 4.0 6.0 0.00 0.00 0.00 1 1008.2
20260902205632 74 216 5.0 7.0 0.00 0.00 0.00 1 1008.1
20260902204628 73 219 4.0 6.0 0.00 0.00 0.00 1 1008.2
20260902203625 73 177 2.0 4.0 0.00 0.00 0.00 1 1008.3
20260902202621 73 201 5.0 7.0 0.00 0.00 0.00 1 1008.5
20260902201617 73 215 2.0 5.0 0.00 0.00 0.00 1 1008.6
20260902200634 73 176 5.0 8.0 0.00 0.00 0.00 1 1008.7
20260902195629 72 253 4.0 6.0 0.00 0.00 0.00 1 1008.9
20260902194707 72 266 5.0 6.0 0.00 0.00 0.00 1 1009.0
20260902193622 72 205 6.0 11.0 0.00 0.00 0.00 1 1009.1
20260902192639 72 219 6.0 8.0 0.00 0.00 0.00 1 1009.2
20260902191635 72 183 3.0 7.0 0.00 0.00 0.00 1 1009.4
20260902190631 71 211 6.0 11.0 0.00 0.00 0.00 1 1009.3
20260902185630 71 207 3.0 4.0 0.00 0.00 0.00 1 1009.7
20260902184624 70 213 4.0 7.0 0.00 0.00 0.00 1 1009.5
20260902183619 70 182 7.0 11.0 0.00 0.00 0.00 1 1009.9
20260902182616 70 209 8.0 14.0 0.00 0.00 0.00 1 1009.9
20260902181632 70 182 8.0 10.0 0.00 0.00 0.00 1 1009.8
20260902180629 70 211 3.0 6.0 0.00 0.00 0.00 1 1009.9
20260902175645 70 185 4.0 8.0 0.00 0.00 0.00 1 1009.9
20260902174641 69 207 6.0 9.0 0.00 0.00 0.00 1 1010.1
20260902173618 68 182 6.0 8.0 0.00 0.00 0.00 1 1009.9
20260902172634 67 200 4.0 6.0 0.00 0.00 0.00 1 1010.1
20260902171630 66 194 6.0 10.0 0.00 0.00 0.00 1 1010.1
20260902170626 66 208 5.0 6.0 0.00 0.00 0.00 1 1010.0
20260902165623 67 192 8.0 10.0 0.00 0.00 0.00 1 1010.2
20260902164619 67 201 6.0 11.0 0.00 0.00 0.00 1 1010.1
20260902163620 66 175 7.0 12.0 0.00 0.00 0.00 1 1010.1
20260902162632 65 197 5.0 7.0 0.00 0.00 0.00 1 1009.9
20260902161628 64 192 7.0 11.0 0.00 0.00 0.00 1 1010.1
20260902160625 64 196 4.0 7.0 0.00 0.00 0.00 1 1010.2
20260902155621 63 191 7.0 12.0 0.00 0.00 0.00 1 1010.2
20260902154617 61 196 7.0 9.0 0.00 0.00 0.00 1 1010.3
20260902153654 60 208 4.0 6.0 0.00 0.00 0.00 1 1010.4
20260902152630 59 207 4.0 5.0 0.00 0.00 0.00 1 1010.3
20260902151626 59 200 6.0 9.0 0.00 0.00 0.00 1 1010.5
20260902150622 59 198 5.0 8.0 0.00 0.00 0.00 1 1010.4
20260902145619 59 212 4.0 6.0 0.00 0.00 0.00 1 1010.4
20260902144635 57 215 7.0 11.0 0.00 0.00 0.00 1 1010.4
20260902143651 57 245 3.0 7.0 0.00 0.00 0.00 1 1010.7
20260902142627 57 305 5.0 7.0 0.00 0.00 0.00 1 1010.6
20260902141623 58 282 3.0 7.0 0.00 0.00 0.00 1 1010.2
20260902140620 58 260 4.0 6.0 0.00 0.00 0.00 1 1010.3
20260902135617 58 300 1.0 4.0 0.00 0.00 0.00 1 1010.1
20260902134633 58 322 1.0 3.0 0.00 0.00 0.00 1 1010.1
20260902133710 58 202 8.0 12.0 0.00 0.00 0.00 1 1009.8
20260902132626 58 213 8.0 13.0 0.00 0.00 0.00 1 1009.6
20260902131622 58 205 7.0 13.0 0.00 0.00 0.00 1 1009.4
20260902130618 58 212 7.0 11.0 0.00 0.00 0.00 1 1009.3
20260902125654 58 215 9.0 13.0 0.00 0.00 0.00 1 1009.7
20260902124650 59 208 7.0 12.0 0.00 0.00 0.00 1 1009.6
20260902123627 59 215 6.0 10.0 0.00 0.00 0.00 1 1009.8
20260902122625 59 204 6.0 11.0 0.00 0.00 0.00 1 1009.6
20260902121638 59 205 8.0 12.0 0.00 0.00 0.00 1 1009.8
20260902120655 59 211 10.0 13.0 0.00 0.00 0.00 1 1009.9
20260902115652 59 216 11.0 18.0 0.00 0.00 0.00 1 1009.8
20260902114628 59 217 9.0 12.0 0.00 0.00 0.00 1 1009.7
20260902113624 59 209 8.0 14.0 0.00 0.00 0.00 1 1009.8
20260902112628 59 195 7.0 14.0 0.00 0.00 0.00 1 1009.9
20260902111617 59 199 7.0 12.0 0.00 0.00 0.00 1 1009.8
20260902110634 59 213 8.0 12.0 0.00 0.00 0.00 1 1009.8
20260902105621 59 201 6.0 11.0 0.00 0.00 0.00 1 1009.5
20260902104632 59 188 8.0 12.0 0.00 0.00 0.00 1 1009.2
20260902103628 59 221 11.0 13.0 0.00 0.00 0.00 1 1009.5
20260902102624 60 201 6.0 9.0 0.00 0.00 0.00 1 1009.2
20260902101621 60 211 6.0 8.0 0.00 0.00 0.00 1 1009.0
20260902100617 60 205 7.0 13.0 0.00 0.00 0.00 1 1009.1
20260902095634 60 216 7.0 10.0 0.00 0.00 0.00 1 1009.3
20260902094631 61 203 6.0 8.0 0.00 0.00 0.00 1 1009.4
20260902093626 61 205 8.0 12.0 0.00 0.00 0.00 1 1009.0
20260902092622 62 231 6.0 9.0 0.00 0.00 0.00 1 1009.2
20260902091618 62 216 4.0 6.0 0.00 0.00 0.00 1 1009.1
20260902090655 62 212 9.0 13.0 0.00 0.00 0.00 1 1009.4
20260902085651 62 230 8.0 10.0 0.00 0.00 0.00 1 1009.1
20260902084631 62 211 10.0 13.0 0.00 0.00 0.00 1 1009.2
20260902083623 62 210 7.0 11.0 0.00 0.00 0.00 1 1009.2
20260902082619 62 215 8.0 10.0 0.00 0.00 0.00 1 1009.3
20260902081620 63 209 8.0 10.0 0.00 0.00 0.00 1 1009.0
20260902080632 64 214 8.0 11.0 0.00 0.00 0.00 1 1008.9
20260902075629 64 219 6.0 9.0 0.00 0.00 0.00 1 1009.1
20260902074625 64 223 4.0 8.0 0.00 0.00 0.00 1 1008.8
20260902073621 65 211 7.0 11.0 0.00 0.00 0.00 1 1008.7
20260902072617 65 236 5.0 8.0 0.00 0.00 0.00 1 1008.8
20260902071654 65 238 3.0 6.0 0.00 0.00 0.00 1 1008.7
20260902070630 65 230 3.0 5.0 0.00 0.00 0.00 1 1008.7
20260902065627 65 204 6.0 10.0 0.00 0.00 0.00 1 1008.9
20260902064642 65 226 8.0 13.0 0.00 0.00 0.00 1 1008.6
20260902063618 66 211 6.0 8.0 0.00 0.00 0.00 1 1008.5
20260902062635 66 205 7.0 11.0 0.00 0.00 0.00 1 1008.4
20260902060627 67 219 6.0 10.0 0.00 0.00 0.00 1 1007.8